This demonstration page uses our WeatherBlox Daily Observations layout. Learn more.

Left ArrowRight Arrow

Hourly Observations for April 14, 2021

Temp ( °F °C ) Dew Point ( °F °C ) Humidity (%) Winds ( mph kmh ) Pressure ( in mb ) Visibility ( mi km ) Precip ( " mm )
12:53 am 00:53 Clear 37 2.8 24 -4.4 59 59 NNE 10 17 30.30 1026 10 16 0.00 0.00
1:53 am 01:53 Clear 35 1.7 23 -5 61 61 NNE 10 17 30.32 1027 10 16 0.00 0.00
2:53 am 02:53 Clear 32 0 23 -5 69 69 N 6 9 30.32 1027 10 16 0.00 0.00
3:53 am 03:53 Clear 30 -1.1 22 -5.6 72 72 NNW 6 9 30.32 1027 10 16 0.00 0.00
4:53 am 04:53 Clear 29 -1.7 22 -5.6 75 75 NNW 7 11 30.32 1027 10 16 0.00 0.00
5:53 am 05:53 Clear 28 -2.2 22 -5.6 78 78 NNW 6 9 30.32 1027 10 16 0.00 0.00
6:53 am 06:53 Clear 28 -2.2 21 -6.1 75 75 NNW 6 9 30.34 1027 10 16 0.00 0.00
7:53 am 07:53 Sunny 31 -0.6 22 -5.6 69 69 NNW 9 15 30.35 1028 10 16 0.00 0.00
8:53 am 08:53 Sunny 35 1.7 23 -5 61 61 N 16 26 30.36 1028 10 16 0.00 0.00
9:53 am 09:53 Sunny 37 2.8 22 -5.6 54 54 N 15 24 30.37 1028 10 16 0.00 0.00
10:53 am 10:53 Mostly Cloudy 40 4.4 24 -4.4 53 53 NNW 16 26 30.35 1028 10 16 0.00 0.00
11:53 am 11:53 Cloudy 42 5.6 24 -4.4 49 49 NNW 20 31 30.35 1028 10 16 0.00 0.00
12:53 pm 12:53 Cloudy 42 5.6 24 -4.4 49 49 NNW 14 22 30.35 1028 10 16 0.00 0.00
1:53 pm 13:53 Cloudy 44 6.7 25 -3.9 47 47 NNW 14 22 30.33 1027 10 16 0.00 0.00
2:53 pm 14:53 Mostly Cloudy 47 8.3 26 -3.3 44 44 NNW 16 26 30.29 1026 10 16 0.00 0.00
3:53 pm 15:53 Partly Cloudy 48 8.9 26 -3.3 42 42 N 12 19 30.28 1025 9 14 0.00 0.00
4:53 pm 16:53 Mostly Cloudy 47 8.3 26 -3.3 44 44 N 10 17 30.26 1025 10 16 0.00 0.00
5:53 pm 17:53 Cloudy 48 8.9 27 -2.8 44 44 N 12 19 30.26 1025 10 16 0.00 0.00
6:53 pm 18:53 Cloudy 47 8.3 27 -2.8 46 46 N 12 19 30.25 1025 10 16 0.00 0.00
7:53 pm 19:53 Mostly Cloudy 44 6.7 28 -2.2 53 53 N 9 15 30.25 1024 10 16 0.00 0.00
8:53 pm 20:53 Partly Cloudy 40 4.4 27 -2.8 60 60 NNE 7 11 30.27 1025 10 16 0.00 0.00
9:53 pm 21:53 Clear 37 2.8 28 -2.2 70 70 N 6 9 30.29 1026 10 16 0.00 0.00
10:53 pm 22:53 Clear 35 1.7 27 -2.8 72 72 NNW 5 7 30.31 1027 10 16 0.00 0.00
11:53 pm 23:53 Clear 34 1.1 28 -2.2 79 79 N 6 9 30.32 1027 10 16 0.00 0.00

Powered by AerisWeather